Location: Passau
(48.5830°N, 13.4830°E)
Time: 19:19:51
(UTC+02:00)

SR - Pass Details

Date: 06 August 2021
Orbit: 580 x 874 km, 66.7° (Epoch: 16 September)

Event Time Altitude Azimuth Distance (km) Brightness Sun altitude
Rises 05:01:15 0° 177° (S) 3,435 ? -7.3°
Reaches altitude 10° 05:04:07 10° 166° (SSE) 2,482 ? -6.9°
Maximum altitude 05:08:49 27° 111° (ESE) 1,561 ? -6.3°
Drops below altitude 10° 05:13:20 10° 56° (NE) 2,376 ? -5.7°
Sets 05:16:00 0° 44° (NE) 3,261 ? -5.3°
